User: anonymous   Login
Location: Oshawa
(43.9000°N, 78.8670°W)
Time: 05:36:53
(UTC-04:00)
Language:

Iridium 46 - Orbit

View from above orbital plane
View from above orbital plane
View from above satellite
View from above satellite

Ground track
Ground track

The orbit data is extracted from the following two-line orbital elements,

1 24905U 97043C   18115.67566881  .00059110 -67935-6  42313-3 0  9995
2 24905  86.3858 120.1825 0309090  99.7693 263.8604 15.30180094 83262
Epoch (UTC): 25 April 2018 16:12:57
Eccentricity: 0.0309090
inclination: 86.3858°
perigee height: 263 km
apogee height: 687 km
right ascension of ascending node: 120.1825°
argument of perigee: 99.7693°
revolutions per day: 15.30180094
mean anomaly at epoch: 263.8604°
orbit number at epoch: 8326

The dashed part of the orbit path shows where the satellite is in the earth's shadow,  

DLR